Regional Weather Roundup
Issued by NWS

Home | Current Version | Previous Version | Text Only | Print | Product List | Glossary On
Versions: 1 2 3 4 5 6 7 8 9 10 11 12 13 14 15 16 17 18 19 20 21 22 23 24 25 26 27 28 29 30 31 32 33 34 35 36 37 38 39 40 41 42 43 44 45 46 47 48 49 50
000
ASUS43 KIND 301209
RWRIN

WEATHER ROUNDUP FOR INDIANA
NATIONAL WEATHER SERVICE INDIANAPOLIS IN
800 AM EDT THU JUL 30 2015

NOTE: "FAIR" INDICATES FEW OR NO CLOUDS BELOW 12,000 FEET WITH NO
SIGNIFICANT WEATHER AND/OR OBSTRUCTIONS TO VISIBILITY.

* - STATION DOES NOT REPORT WEATHER SUCH AS PRECIPITATION OR FOG.

+ - STATION NOT QUALITY CONTROLLED BY THE NATIONAL WEATHER SERVICE.
    USE DATA WITH CAUTION...ESPECIALLY DEWPOINT AND RELATIVE
    HUMIDITY OBSERVATIONS.

INZ001>003-010>013-019-020-301300-
NORTHWEST INDIANA

CITY           SKY/WX    TMP DP  RH WIND       PRES   REMARKS
GARY /AIRPORT/ SUNNY     70  61  73 W12       30.06R
KNOX *+        SUNNY     63  59  88 W8        30.04S
LA PORTE +     SUNNY     67  61  81 W6        30.05R
6HR MIN TEMP:  61; 6HR MAX TEMP:  67;

MICHIGAN CITY+ SUNNY     64  63  94 SW5       30.04S
MONTICELLO +   SUNNY     64  62  93 NW6       30.06R
6HR MIN TEMP:  62; 6HR MAX TEMP:  66;

RENSSELAER +   SUNNY     64  63  94 W6        30.08R
VALPARAISO     SUNNY     66  59  78 W8        30.06R
6HR MIN TEMP:  61; 6HR MAX TEMP:  68;


$$

LMZ046-743>745-301300-
SOUTHERN LAKE MICHIGAN

STATION/POSITION TIME  TEMP    WIND        PRES    WAVE
                       AIR SEA DIR/SP/G            HT
                 (UTC) (F)     (DEG/KT/KT) (MB)    (FT)
BURNS HARBOR     1100   72     280/ 14/ 18 1017.3R
MICHIGAN CITY    1100   73     260/ 19/ 23   N/A
5NW MICH CITY    1200   73 73  290/ 14/ 17   N/A     4

$$

INZ004-005-014>016-021>024-301300-
NORTH CENTRAL INDIANA

CITY           SKY/WX    TMP DP  RH WIND       PRES   REMARKS
ELKHART        SUNNY     64  61  88 W5        30.03R
GOSHEN         SUNNY     65  60  84 W7        30.03R
6HR MIN TEMP:  60; 6HR MAX TEMP:  65; 6HR PCP: TRACE;

LOGANSPORT +   SUNNY     64  55  72 W3        30.07S
PERU/GRISSOM   SUNNY     64  60  88 W6        30.06R
6HR MIN TEMP:  60; 6HR MAX TEMP:  64;

ROCHESTER +    SUNNY     66  61  82 W8        30.06R
SOUTH BEND     SUNNY     66  61  84 W5        30.04R
6HR MIN TEMP:  61; 6HR MAX TEMP:  66; 6HR PCP: TRACE;

WARSAW +       SUNNY     64  59  82 W8        30.04S

$$

INZ006>009-017-018-025>027-301300-
NORTHEAST INDIANA

CITY           SKY/WX    TMP DP  RH WIND       PRES   REMARKS
ANGOLA *+      SUNNY     68  61  77 W5        30.02S
AUBURN +       SUNNY     64  59  82 W3        30.04R
FORT WAYNE     MOSUNNY   66  59  78 W8        30.05R
6HR MIN TEMP:  62; 6HR MAX TEMP:  66;

HUNTINGTON +   SUNNY     65  59  81 W6        30.05R
6HR MIN TEMP:  62; 6HR MAX TEMP:  67;


$$

INZ028-029-035-036-043>045-051>053-301300-
WEST CENTRAL INDIANA

CITY           SKY/WX    TMP DP  RH WIND       PRES   REMARKS
CRAWFORDSVL +  SUNNY     63  59  87 CALM        N/A
6HR MIN TEMP:  58; 6HR MAX TEMP:  63; 6HR PCP:  0.01;

GREENCASTLE +  SUNNY     66  55  68 NW3       30.10R
LAFAYETTE      SUNNY     63  62  97 CALM      30.07R
6HR MIN TEMP:  59; 6HR MAX TEMP:  64;

TERRE HAUTE    SUNNY     67  61  81 N5        30.10R
6HR MIN TEMP:  63; 6HR MAX TEMP:  69;


$$

INZ030>032-037>040-046>048-054>057-064-065-301300-
CENTRAL INDIANA

CITY           SKY/WX    TMP DP  RH WIND       PRES   REMARKS
COLUMBUS       MOSUNNY   66  59  77 CALM      30.08R
FISHERS *+     SUNNY     66  61  82 NW5       30.08
FRANKFORT +    SUNNY    N/A N/A N/A CALM      30.09S
GREENWOOD *+   SUNNY     68  59  73 CALM      30.09R
INDIANAPOLIS   MOSUNNY   69  58  67 NW8       30.07R
6HR MIN TEMP:  64; 6HR MAX TEMP:  69;

-EAGLE CREEK   SUNNY     68  60  75 N7        30.08R
6HR MIN TEMP:  66; 6HR MAX TEMP:  70;

KOKOMO *+      MOSUNNY   64  57  77 W7        30.07R
6HR MIN TEMP:  61; 6HR MAX TEMP:  64;

MARION +       SUNNY     62  59  88 CALM      30.08R
MT COMFORT *+  SUNNY     68  59  73 NW6       30.08R
SHELBYVILLE    SUNNY     68  61  78 NW3       30.07R
6HR MIN TEMP:  65; 6HR MAX TEMP:  71;

ZIONSVILLE +   SUNNY     66  59  77 NW3       30.09R
6HR MIN TEMP:  63; 6HR MAX TEMP:  67;


$$

INZ033-034-041-042-049-050-058-059-301300-
EAST CENTRAL INDIANA

CITY           SKY/WX    TMP DP  RH WIND       PRES   REMARKS
MUNCIE         SUNNY     65  59  81 NW7       30.07R
6HR MIN TEMP:  62; 6HR MAX TEMP:  69;


$$

INZ060-061-067>069-081>083-085>088-301300-
SOUTHWEST INDIANA

CITY           SKY/WX    TMP DP  RH WIND       PRES   REMARKS
EVANSVILLE     SUNNY     71  60  68 N5        30.11R
6HR MIN TEMP:  69; 6HR MAX TEMP:  76;

HUNTINGBURG *+ SUNNY     66  63  88 CALM      30.10R
6HR MIN TEMP:  66; 6HR MAX TEMP:  75;

WASHINGTON +   SUNNY     65  61  87 CALM      30.10R
6HR MIN TEMP:  64; 6HR MAX TEMP:  69;


$$

INZ062-063-066-070>080-084-089>092-301300-
SOUTH CENTRAL AND SOUTHEAST INDIANA

CITY           SKY/WX    TMP DP  RH WIND       PRES   REMARKS
BLOOMINGTON    SUNNY     67  61  81 CALM      30.10R
6HR MIN TEMP:  63; 6HR MAX TEMP:  71;

MADISON *+     SUNNY     68  61  77 NW3       30.10R
NORTH VERNON + SUNNY     66  66 100 CALM      30.09R
SEYMOUR +      SUNNY     70  63  78 CALM      30.08R

$$




USA.gov is the U.S. government's official web portal to all federal, state and local government web resources and services.